Погода в Кондуе

Россия / Забайкальский край     50°33′18″N   117°28′19″E
темп.,
°C
ветер,
м/с
пор.,
м/с
влажн.,
%
обл.,
%
осадки,
мм/ч
давл.,
гПа
погр.,
м
9 декабря, чт
чт900:00−15с0097100 0.0 10219
03:00−15з11100100 0.1 102010
06:00−13зсз1198100 0.0 101920
09:00−12зсз1291100 0.0 102115
12:00−7зсз2379100 0.0 102173
15:00−7зсз2279100 0.0 102147
18:00−10зсз3286100 0.0 102528
21:00−13зсз2289100 0.0 102822
10 декабря, пт
пт1000:00−15сз2290100 0.0 103015
03:00−16сз22905 0.0 103113
06:00−17зсз229116 0.0 103213
09:00−15зсз1188100 0.0 103212
12:00−10зюз2274100 0.0 1030120
15:00−9з3673100 0.0 1029486
18:00−13з239199 0.0 103061
21:00−15зсз239073 0.0 103237
11 декабря, сб
сб1100:00−18зсз23895 0.0 103332
03:00−19з239070 0.0 103344
06:00−19з2392100 0.0 103260
09:00−19з239193 0.0 103254
12:00−14зсз5128111 0.0 1030653
15:00−14зсз6128124 0.0 1029762
18:00−15зсз611765 0.0 1029430
21:00−17зсз49814 0.0 1030192
12 декабря, вс
вс1200:00−20зсз36841 0.0 103192
03:00−21зсз33883 0.0 103236
06:00−23зсз32872 0.0 103327
09:00−24зсз22862 0.0 103419
12:00−18з23680 0.0 1033135
15:00−17зюз23705 0.0 1030133
18:00−22з22895 0.0 103117
21:00−23з119349 0.0 102911
13 декабря, пн
пн1300:00−20юз1295100 0.0 102564
03:00−18ю0189100 0.0 102059
06:00−18зсз0193100 0.0 101714
09:00−19з1194100 0.0 101610
12:00−14зюз128188 0.0 101493
15:00−12ююз11866 0.0 101331
18:00−17сз119554 0.0 10159
21:00−18сз119499 0.0 101610